Погода в Кульгешах

Россия / Чувашская Республика     55°45′32″N   47°57′22″E
темп.,
°C
ветер,
м/с
пор.,
м/с
влажн.,
%
обл.,
%
осадки,
мм/ч
давл.,
гПа
погр.,
м
27 января, чт
чт2700:00−22юз2210060 0.0 101817
03:00−19юз259896 0.1 101996
06:00−20ююз2210064 0.1 101924
09:00−20ююз3610077 0.1 1020105
12:00−15юз379423 0.0 1020196
15:00−15ююв229740 0.0 102025
18:00−18ю359952 0.0 102167
21:00−20ю2310088 0.0 102036
28 января, пт
пт2800:00−19ю2210099 0.0 102020
03:00−16ю239889 0.1 102047
06:00−14ююв259880 0.1 101979
09:00−12ююв389666 0.2 1019165
12:00−8ююв5109589 0.1 1019297
15:00−7ююв4109587 0.4 1018332
18:00−9юв41095100 0.0 1017221
21:00−9юв41195100 0.0 1016269
29 января, сб
сб2900:00−9юв3996100 0.1 1015257
03:00−10юв389887 0.2 1014185
06:00−14ююв2410095 0.0 101450
09:00−14ююв38100100 0.1 1013149
12:00−10ююв4995100 0.0 1012256
15:00−9ююв51095100 0.1 1011318
18:00−9ююв4995100 0.4 1010277
21:00−8ююв4995100 0.8 1009272
30 января, вс
вс3000:00−8ююв4796100 0.4 1008222
03:00−9ююв369699 0.6 1007152
06:00−9ююв3696100 0.1 1005122
09:00−12ююв229988 0.1 100535
12:00−7ююв249772 0.0 1004131
15:00−8юв249875 0.0 100355
18:00−7ююв389776 0.1 1003133
21:00−8ю399881 0.1 1002135
31 января, пн
пн3100:00−9ю41095100 0.0 1002211
03:00−8ююв61293100 0.0 1002321
06:00−7ююв71495100 0.4 1000487
09:00−5ююв71594100 0.8 1000553
12:00−3ююв71596100 0.6 999661
15:00−1ююв61397100 1.8 998650
18:000ю8149591 0.8 997750
21:000ю71596100 0.9 997811